Regional Weather Roundup
Issued by NWS

Home | Current Version | Previous Version | Graphics & Text | Print | Product List | Glossary On
Versions: 1 2 3 4 5 6 7 8 9 10 11 12 13 14 15 16 17 18 19 20 21 22 23 24 25 26 27 28 29 30 31 32 33 34 35 36 37 38 39 40 41 42 43 44 45 46 47 48 49 50
000
ASUS43 KBIS 301459
RWRND

NORTH DAKOTA REGIONAL WEATHER ROUNDUP
NATIONAL WEATHER SERVICE BISMARCK ND
1000 AM CDT WED JUL 30 2014

NOTE: "FAIR" INDICATES FEW OR NO CLOUDS BELOW 12,000 FEET WITH NO
SIGNIFICANT WEATHER AND/OR OBSTRUCTIONS TO VISIBILITY.


NDZ001>003-009>011-017-301600-
NORTHWEST NORTH DAKOTA

CITY           SKY/WX    TMP DP  RH WIND       PRES   REMARKS
WILLISTON      SUNNY     70  58  65 VRB3      30.20S
MINOT          SUNNY     70  59  68 CALM      30.16S
$$

NDZ018>021-031>035-040>046-301600-
SOUTHWEST NORTH DAKOTA

CITY           SKY/WX    TMP DP  RH WIND       PRES   REMARKS
BISMARCK       SUNNY     70  57  63 VRB3      30.18R
GARRISON         N/A     70  61  73 CALM      30.18S
HETTINGER ARPT SUNNY     68  56  65 N7        30.20R
$$

NDZ004>008-012>016-024-026-027-054-301600-
NORTHEAST NORTH DAKOTA

CITY           SKY/WX    TMP DP  RH WIND       PRES   REMARKS
GRAND FORKS    SUNNY     72  57  59 W5        30.11F
DEVILS LAKE    SUNNY     70  57  64 NW6       30.15S
$$

NDZ022-023-025-028>030-036>039-047>053-301600-
SOUTHEAST NORTH DAKOTA

CITY           SKY/WX    TMP DP  RH WIND       PRES   REMARKS
FARGO          SUNNY     72  56  57 N6        30.13S
JAMESTOWN      SUNNY     71  55  56 VRB3      30.16S
$$




USA.gov is the U.S. government's official web portal to all federal, state and local government web resources and services.